Year,Month,Day,Hour,Minute,Value (Times are PST for temperature in C)
2007,03,27,00,00,7.20
2007,03,27,00,01,7.20
2007,03,27,00,02,7.20
2007,03,27,00,03,7.20
2007,03,27,00,04,7.20
2007,03,27,00,05,7.20
2007,03,27,00,06,7.20
2007,03,27,00,07,7.20
2007,03,27,00,08,7.20
2007,03,27,00,09,7.10
2007,03,27,00,10,7.10
2007,03,27,00,11,7.10
2007,03,27,00,12,7.10
2007,03,27,00,13,7.00
2007,03,27,00,14,7.00
2007,03,27,00,15,7.00
2007,03,27,00,16,7.00
2007,03,27,00,17,7.00
2007,03,27,00,18,6.90
2007,03,27,00,19,6.90
2007,03,27,00,20,6.90
2007,03,27,00,21,6.90
2007,03,27,00,22,6.90
2007,03,27,00,23,6.90
2007,03,27,00,24,6.90
2007,03,27,00,25,6.90
2007,03,27,00,26,6.80
2007,03,27,00,27,6.80
2007,03,27,00,28,6.80
2007,03,27,00,29,6.70
2007,03,27,00,30,6.70
2007,03,27,00,31,6.60
2007,03,27,00,32,6.60
2007,03,27,00,33,6.60
2007,03,27,00,34,6.60
2007,03,27,00,35,6.60
2007,03,27,00,36,6.50
2007,03,27,00,37,6.40
2007,03,27,00,38,6.40
2007,03,27,00,39,6.40
2007,03,27,00,40,6.40
2007,03,27,00,41,6.50
2007,03,27,00,42,6.60
2007,03,27,00,43,6.60
2007,03,27,00,44,6.50
2007,03,27,00,45,6.40
2007,03,27,00,46,6.40
2007,03,27,00,47,6.40
2007,03,27,00,48,6.30
2007,03,27,00,49,6.30
2007,03,27,00,50,6.30
2007,03,27,00,51,6.30
2007,03,27,00,52,6.20
2007,03,27,00,53,6.20
2007,03,27,00,54,6.20
2007,03,27,00,55,6.20
2007,03,27,00,56,6.20
2007,03,27,00,57,6.20
2007,03,27,00,58,6.20
2007,03,27,00,59,6.20
2007,03,27,01,00,6.20
2007,03,27,01,01,6.20
2007,03,27,01,02,6.20
2007,03,27,01,03,6.10
2007,03,27,01,04,6.10
2007,03,27,01,05,6.10
2007,03,27,01,06,6.10
2007,03,27,01,07,6.10
2007,03,27,01,08,6.10
2007,03,27,01,09,6.00
2007,03,27,01,10,6.00
2007,03,27,01,11,6.00
2007,03,27,01,12,6.00
2007,03,27,01,13,6.00
2007,03,27,01,14,5.90
2007,03,27,01,15,5.90
2007,03,27,01,16,5.90
2007,03,27,01,17,5.90
2007,03,27,01,18,5.90
2007,03,27,01,19,5.90
2007,03,27,01,20,5.90
2007,03,27,01,21,5.90
2007,03,27,01,22,5.90
2007,03,27,01,23,5.90
2007,03,27,01,24,5.90
2007,03,27,01,25,5.80
2007,03,27,01,26,5.80
2007,03,27,01,27,5.80
2007,03,27,01,28,5.80
2007,03,27,01,29,5.80
2007,03,27,01,30,5.80
2007,03,27,01,31,5.80
2007,03,27,01,32,5.80
2007,03,27,01,33,5.80
2007,03,27,01,34,5.80
2007,03,27,01,35,5.70
2007,03,27,01,36,5.70
2007,03,27,01,37,5.70
2007,03,27,01,38,5.70
2007,03,27,01,39,5.60
2007,03,27,01,40,5.60
2007,03,27,01,41,5.60
2007,03,27,01,42,5.50
2007,03,27,01,43,5.50
2007,03,27,01,44,5.50
2007,03,27,01,45,5.50
2007,03,27,01,46,5.50
2007,03,27,01,47,5.50
2007,03,27,01,48,5.40
2007,03,27,01,49,5.40
2007,03,27,01,50,5.40
2007,03,27,01,51,5.40
2007,03,27,01,52,5.40
2007,03,27,01,53,5.40
2007,03,27,01,54,5.30
2007,03,27,01,55,5.30
2007,03,27,01,56,5.30
2007,03,27,01,57,5.30
2007,03,27,01,58,5.30
2007,03,27,01,59,5.30
2007,03,27,02,00,5.30
2007,03,27,02,01,5.30
2007,03,27,02,02,5.30
2007,03,27,02,03,5.30
2007,03,27,02,04,5.30
2007,03,27,02,05,5.30
2007,03,27,02,06,5.30
2007,03,27,02,07,5.30
2007,03,27,02,08,5.20
2007,03,27,02,09,5.20
2007,03,27,02,10,5.10
2007,03,27,02,11,5.10
2007,03,27,02,12,5.10
2007,03,27,02,13,5.10
2007,03,27,02,14,5.10
2007,03,27,02,15,5.10
2007,03,27,02,16,5.10
2007,03,27,02,17,5.10
2007,03,27,02,18,5.00
2007,03,27,02,19,4.90
2007,03,27,02,20,4.90
2007,03,27,02,21,4.90
2007,03,27,02,22,4.90
2007,03,27,02,23,4.90
2007,03,27,02,24,4.90
2007,03,27,02,25,4.90
2007,03,27,02,26,4.90
2007,03,27,02,27,4.90
2007,03,27,02,28,4.90
2007,03,27,02,29,4.90
2007,03,27,02,30,4.90
2007,03,27,02,31,4.90
2007,03,27,02,32,4.80
2007,03,27,02,33,4.80
2007,03,27,02,34,4.80
2007,03,27,02,35,4.70
2007,03,27,02,36,4.70
2007,03,27,02,37,4.70
2007,03,27,02,38,4.70
2007,03,27,02,39,4.60
2007,03,27,02,40,4.60
2007,03,27,02,41,4.60
2007,03,27,02,42,4.60
2007,03,27,02,43,4.60
2007,03,27,02,44,4.60
2007,03,27,02,45,4.60
2007,03,27,02,46,4.60
2007,03,27,02,47,4.60
2007,03,27,02,48,4.60
2007,03,27,02,49,4.60
2007,03,27,02,50,4.60
2007,03,27,02,51,4.60
2007,03,27,02,52,4.60
2007,03,27,02,53,4.60
2007,03,27,02,54,4.60
2007,03,27,02,55,4.60
2007,03,27,02,56,4.60
2007,03,27,02,57,4.60
2007,03,27,02,58,4.60
2007,03,27,02,59,4.60
2007,03,27,03,00,4.60
2007,03,27,03,01,4.60
2007,03,27,03,02,4.60
2007,03,27,03,03,4.50
2007,03,27,03,04,4.50
2007,03,27,03,05,4.50
2007,03,27,03,06,4.50
2007,03,27,03,07,4.50
2007,03,27,03,08,4.50
2007,03,27,03,09,4.50
2007,03,27,03,10,4.50
2007,03,27,03,11,4.40
2007,03,27,03,12,4.40
2007,03,27,03,13,4.40
2007,03,27,03,14,4.40
2007,03,27,03,15,4.40
2007,03,27,03,16,4.40
2007,03,27,03,17,4.40
2007,03,27,03,18,4.40
2007,03,27,03,19,4.40
2007,03,27,03,20,4.50
2007,03,27,03,21,4.50
2007,03,27,03,22,4.50
2007,03,27,03,23,4.50
2007,03,27,03,24,4.50
2007,03,27,03,25,4.50
2007,03,27,03,26,4.50
2007,03,27,03,27,4.50
2007,03,27,03,28,4.50
2007,03,27,03,29,4.50
2007,03,27,03,30,4.40
2007,03,27,03,31,4.40
2007,03,27,03,32,4.40
2007,03,27,03,33,4.40
2007,03,27,03,34,4.40
2007,03,27,03,35,4.30
2007,03,27,03,36,4.30
2007,03,27,03,37,4.30
2007,03,27,03,38,4.20
2007,03,27,03,39,4.20
2007,03,27,03,40,4.20
2007,03,27,03,41,4.20
2007,03,27,03,42,4.20
2007,03,27,03,43,4.20
2007,03,27,03,44,4.10
2007,03,27,03,45,4.10
2007,03,27,03,46,4.10
2007,03,27,03,47,4.10
2007,03,27,03,48,4.10
2007,03,27,03,49,4.10
2007,03,27,03,50,4.00
2007,03,27,03,51,4.00
2007,03,27,03,52,4.00
2007,03,27,03,53,4.00
2007,03,27,03,54,4.10
2007,03,27,03,55,4.10
2007,03,27,03,56,4.10
2007,03,27,03,57,4.10
2007,03,27,03,58,4.10
2007,03,27,03,59,4.10
2007,03,27,04,00,4.10
2007,03,27,04,01,4.10
2007,03,27,04,02,4.10
2007,03,27,04,03,4.10
2007,03,27,04,04,4.10
2007,03,27,04,05,4.00
2007,03,27,04,06,4.00
2007,03,27,04,07,4.00
2007,03,27,04,08,4.00
2007,03,27,04,09,3.90
2007,03,27,04,10,3.90
2007,03,27,04,11,3.90
2007,03,27,04,12,3.80
2007,03,27,04,13,3.80
2007,03,27,04,14,3.80
2007,03,27,04,15,3.80
2007,03,27,04,16,3.80
2007,03,27,04,17,3.70
2007,03,27,04,18,3.70
2007,03,27,04,19,3.70
2007,03,27,04,20,3.70
2007,03,27,04,21,3.60
2007,03,27,04,22,3.60
2007,03,27,04,23,3.60
2007,03,27,04,24,3.60
2007,03,27,04,25,3.60
2007,03,27,04,26,3.60
2007,03,27,04,27,3.50
2007,03,27,04,28,3.50
2007,03,27,04,29,3.50
2007,03,27,04,30,3.50
2007,03,27,04,31,3.50
2007,03,27,04,32,3.50
2007,03,27,04,33,3.50
2007,03,27,04,34,3.40
2007,03,27,04,35,3.40
2007,03,27,04,36,3.40
2007,03,27,04,37,3.40
2007,03,27,04,38,3.40
2007,03,27,04,39,3.50
2007,03,27,04,40,3.50
2007,03,27,04,41,3.50
2007,03,27,04,42,3.50
2007,03,27,04,43,3.50
2007,03,27,04,44,3.50
2007,03,27,04,45,3.50
2007,03,27,04,46,3.50
2007,03,27,04,47,3.50
2007,03,27,04,48,3.40
2007,03,27,04,49,3.40
2007,03,27,04,50,3.40
2007,03,27,04,51,3.30
2007,03,27,04,52,3.30
2007,03,27,04,53,3.30
2007,03,27,04,54,3.30
2007,03,27,04,55,3.30
2007,03,27,04,56,3.30
2007,03,27,04,57,3.30
2007,03,27,04,58,3.30
2007,03,27,04,59,3.30
2007,03,27,05,00,3.30
2007,03,27,05,01,3.30
2007,03,27,05,02,3.30
2007,03,27,05,03,3.30
2007,03,27,05,04,3.30
2007,03,27,05,05,3.30
2007,03,27,05,06,3.30
2007,03,27,05,07,3.30
2007,03,27,05,08,3.30
2007,03,27,05,09,3.30
2007,03,27,05,10,3.30
2007,03,27,05,11,3.30
2007,03,27,05,12,3.30
2007,03,27,05,13,3.30
2007,03,27,05,14,3.20
2007,03,27,05,15,3.20
2007,03,27,05,16,3.20
2007,03,27,05,17,3.20
2007,03,27,05,18,3.20
2007,03,27,05,19,3.10
2007,03,27,05,20,3.10
2007,03,27,05,21,3.10
2007,03,27,05,22,3.10
2007,03,27,05,23,3.10
2007,03,27,05,24,3.10
2007,03,27,05,25,3.00
2007,03,27,05,26,2.90
2007,03,27,05,27,2.90
2007,03,27,05,28,2.90
2007,03,27,05,29,2.90
2007,03,27,05,30,2.90
2007,03,27,05,31,2.80
2007,03,27,05,32,2.80
2007,03,27,05,33,2.80
2007,03,27,05,34,2.80
2007,03,27,05,35,2.70
2007,03,27,05,36,2.70
2007,03,27,05,37,2.70
2007,03,27,05,38,2.70
2007,03,27,05,39,2.70
2007,03,27,05,40,2.70
2007,03,27,05,41,2.70
2007,03,27,05,42,2.70
2007,03,27,05,43,2.70
2007,03,27,05,44,2.70
2007,03,27,05,45,2.70
2007,03,27,05,46,2.70
2007,03,27,05,47,2.70
2007,03,27,05,48,2.70
2007,03,27,05,49,2.70
2007,03,27,05,50,2.70
2007,03,27,05,51,2.70
2007,03,27,05,52,2.70
2007,03,27,05,53,2.70
2007,03,27,05,54,2.70
2007,03,27,05,55,2.70
2007,03,27,05,56,2.70
2007,03,27,05,57,2.70
2007,03,27,05,58,2.70
2007,03,27,05,59,2.70
2007,03,27,06,00,2.70
2007,03,27,06,01,2.70
2007,03,27,06,02,2.70
2007,03,27,06,03,2.70
2007,03,27,06,04,2.70
2007,03,27,06,05,2.80
2007,03,27,06,06,2.80
2007,03,27,06,07,2.80
2007,03,27,06,08,2.80
2007,03,27,06,09,2.90
2007,03,27,06,10,2.90
2007,03,27,06,11,2.90
2007,03,27,06,12,2.90
2007,03,27,06,13,2.90
2007,03,27,06,14,2.90
2007,03,27,06,15,2.90
2007,03,27,06,16,2.90
2007,03,27,06,17,2.90
2007,03,27,06,18,2.90
2007,03,27,06,19,2.90
2007,03,27,06,20,2.90
2007,03,27,06,21,2.90
2007,03,27,06,22,2.90
2007,03,27,06,23,2.90
2007,03,27,06,24,2.90
2007,03,27,06,25,2.90
2007,03,27,06,26,2.90
2007,03,27,06,27,2.90
2007,03,27,06,28,3.00
2007,03,27,06,29,3.10
2007,03,27,06,30,3.10
2007,03,27,06,31,3.10
2007,03,27,06,32,3.10
2007,03,27,06,33,3.10
2007,03,27,06,34,3.10
2007,03,27,06,35,3.10
2007,03,27,06,36,3.10
2007,03,27,06,37,3.00
2007,03,27,06,38,2.90
2007,03,27,06,39,2.90
2007,03,27,06,40,2.90
2007,03,27,06,41,2.90
2007,03,27,06,42,2.90
2007,03,27,06,43,2.80
2007,03,27,06,44,2.80
2007,03,27,06,45,2.80
2007,03,27,06,46,2.80
2007,03,27,06,47,2.80
2007,03,27,06,48,2.80
2007,03,27,06,49,2.70
2007,03,27,06,50,2.70
2007,03,27,06,51,2.70
2007,03,27,06,52,2.70
2007,03,27,06,53,2.70
2007,03,27,06,54,2.70
2007,03,27,06,55,2.80
2007,03,27,06,56,2.80
2007,03,27,06,57,2.80
2007,03,27,06,58,2.80
2007,03,27,06,59,2.80
2007,03,27,07,00,2.80
2007,03,27,07,01,2.70
2007,03,27,07,02,2.70
2007,03,27,07,03,2.70
2007,03,27,07,04,2.70
2007,03,27,07,05,2.70
2007,03,27,07,06,2.70
2007,03,27,07,07,2.70
2007,03,27,07,08,2.70
2007,03,27,07,09,2.70
2007,03,27,07,10,2.70
2007,03,27,07,11,2.70
2007,03,27,07,12,2.70
2007,03,27,07,13,2.70
2007,03,27,07,14,2.70
2007,03,27,07,15,2.80
2007,03,27,07,16,2.90
2007,03,27,07,17,2.90
2007,03,27,07,18,2.90
2007,03,27,07,19,2.80
2007,03,27,07,20,2.80
2007,03,27,07,21,2.80
2007,03,27,07,22,2.80
2007,03,27,07,23,2.70
2007,03,27,07,24,2.70
2007,03,27,07,25,2.70
2007,03,27,07,26,2.70
2007,03,27,07,27,2.70
2007,03,27,07,28,2.70
2007,03,27,07,29,2.70
2007,03,27,07,30,2.70
2007,03,27,07,31,2.70
2007,03,27,07,32,2.70
2007,03,27,07,33,2.70
2007,03,27,07,34,2.70
2007,03,27,07,35,2.70
2007,03,27,07,36,2.70
2007,03,27,07,37,2.70
2007,03,27,07,38,2.70
2007,03,27,07,39,2.70
2007,03,27,07,40,2.70
2007,03,27,07,41,2.70
2007,03,27,07,42,2.70
2007,03,27,07,43,2.70
2007,03,27,07,44,2.70
2007,03,27,07,45,2.70
2007,03,27,07,46,2.70
2007,03,27,07,47,2.70
2007,03,27,07,48,2.70
2007,03,27,07,49,2.70
2007,03,27,07,50,2.70
2007,03,27,07,51,2.70
2007,03,27,07,52,2.70
2007,03,27,07,53,2.80
2007,03,27,07,54,2.80
2007,03,27,07,55,2.80
2007,03,27,07,56,2.90
2007,03,27,07,57,2.90
2007,03,27,07,58,3.00
2007,03,27,07,59,3.10
2007,03,27,08,00,3.20
2007,03,27,08,01,3.30
2007,03,27,08,02,3.40
2007,03,27,08,03,3.50
2007,03,27,08,04,3.60
2007,03,27,08,05,3.60
2007,03,27,08,06,3.70
2007,03,27,08,07,3.80
2007,03,27,08,08,4.00
2007,03,27,08,09,4.10
2007,03,27,08,10,4.20
2007,03,27,08,11,4.40
2007,03,27,08,12,4.50
2007,03,27,08,13,4.60
2007,03,27,08,14,4.60
2007,03,27,08,15,4.70
2007,03,27,08,16,4.70
2007,03,27,08,17,4.80
2007,03,27,08,18,4.90
2007,03,27,08,19,5.10
2007,03,27,08,20,5.10
2007,03,27,08,21,5.20
2007,03,27,08,22,5.30
2007,03,27,08,23,5.30
2007,03,27,08,24,5.50
2007,03,27,08,25,5.60
2007,03,27,08,26,5.70
2007,03,27,08,27,5.80
2007,03,27,08,28,5.90
2007,03,27,08,29,6.10
2007,03,27,08,30,6.20
2007,03,27,08,31,6.30
2007,03,27,08,32,6.50
2007,03,27,08,33,6.70
2007,03,27,08,34,6.80
2007,03,27,08,35,7.00
2007,03,27,08,36,7.20
2007,03,27,08,37,7.30
2007,03,27,08,38,7.50
2007,03,27,08,39,7.60
2007,03,27,08,40,7.80
2007,03,27,08,41,7.80
2007,03,27,08,42,7.90
2007,03,27,08,43,8.00
2007,03,27,08,44,8.10
2007,03,27,08,45,8.20
2007,03,27,08,46,8.30
2007,03,27,08,47,8.40
2007,03,27,08,48,8.50
2007,03,27,08,49,8.60
2007,03,27,08,50,8.70
2007,03,27,08,51,8.70
2007,03,27,08,52,8.70
2007,03,27,08,53,8.80
2007,03,27,08,54,8.80
2007,03,27,08,55,8.90
2007,03,27,08,56,9.00
2007,03,27,08,57,9.00
2007,03,27,08,58,9.00
2007,03,27,08,59,8.90
2007,03,27,09,00,8.90
2007,03,27,09,01,8.90
2007,03,27,09,02,8.90
2007,03,27,09,03,8.90
2007,03,27,09,04,8.80
2007,03,27,09,05,8.80
2007,03,27,09,06,8.80
2007,03,27,09,07,8.80
2007,03,27,09,08,8.80
2007,03,27,09,09,8.90
2007,03,27,09,10,8.90
2007,03,27,09,11,8.90
2007,03,27,09,12,9.00
2007,03,27,09,13,8.90
2007,03,27,09,14,9.00
2007,03,27,09,15,9.00
2007,03,27,09,16,9.00
2007,03,27,09,17,8.90
2007,03,27,09,18,8.90
2007,03,27,09,19,8.90
2007,03,27,09,20,8.90
2007,03,27,09,21,8.90
2007,03,27,09,22,8.90
2007,03,27,09,23,9.00
2007,03,27,09,24,9.10
2007,03,27,09,25,9.20
2007,03,27,09,26,9.20
2007,03,27,09,27,9.20
2007,03,27,09,28,9.20
2007,03,27,09,29,9.20
2007,03,27,09,30,9.20
2007,03,27,09,31,9.20
2007,03,27,09,32,9.20
2007,03,27,09,33,9.20
2007,03,27,09,34,9.30
2007,03,27,09,35,9.30
2007,03,27,09,36,9.30
2007,03,27,09,37,9.30
2007,03,27,09,38,9.40
2007,03,27,09,39,9.40
2007,03,27,09,40,9.50
2007,03,27,09,41,9.40
2007,03,27,09,42,9.30
2007,03,27,09,43,9.20
2007,03,27,09,44,9.20
2007,03,27,09,45,9.20
2007,03,27,09,46,9.20
2007,03,27,09,47,9.20
2007,03,27,09,48,9.30
2007,03,27,09,49,9.40
2007,03,27,09,50,9.30
2007,03,27,09,51,9.20
2007,03,27,09,52,9.20
2007,03,27,09,53,9.20
2007,03,27,09,54,9.10
2007,03,27,09,55,9.00
2007,03,27,09,56,9.00
2007,03,27,09,57,8.90
2007,03,27,09,58,8.90
2007,03,27,09,59,9.00
2007,03,27,10,00,9.00
2007,03,27,10,01,9.00
2007,03,27,10,02,9.00
2007,03,27,10,03,9.00
2007,03,27,10,04,9.00
2007,03,27,10,05,9.00
2007,03,27,10,06,8.90
2007,03,27,10,07,8.80
2007,03,27,10,08,8.80
2007,03,27,10,09,8.80
2007,03,27,10,10,8.80
2007,03,27,10,11,8.80
2007,03,27,10,12,8.80
2007,03,27,10,13,8.80
2007,03,27,10,14,8.90
2007,03,27,10,15,9.00
2007,03,27,10,16,9.20
2007,03,27,10,17,9.20
2007,03,27,10,18,9.20
2007,03,27,10,19,9.30
2007,03,27,10,20,9.30
2007,03,27,10,21,9.30
2007,03,27,10,22,9.30
2007,03,27,10,23,9.20
2007,03,27,10,24,9.20
2007,03,27,10,25,9.20
2007,03,27,10,26,9.20
2007,03,27,10,27,9.10
2007,03,27,10,28,9.00
2007,03,27,10,29,9.00
2007,03,27,10,30,8.90
2007,03,27,10,31,8.90
2007,03,27,10,32,8.90
2007,03,27,10,33,8.90
2007,03,27,10,34,8.90
2007,03,27,10,35,8.90
2007,03,27,10,36,8.80
2007,03,27,10,37,8.70
2007,03,27,10,38,8.80
2007,03,27,10,39,8.90
2007,03,27,10,40,9.10
2007,03,27,10,41,9.30
2007,03,27,10,42,9.50
2007,03,27,10,43,9.40
2007,03,27,10,44,9.50
2007,03,27,10,45,9.60
2007,03,27,10,46,9.70
2007,03,27,10,47,9.70
2007,03,27,10,48,9.80
2007,03,27,10,49,9.60
2007,03,27,10,50,9.60
2007,03,27,10,51,9.40
2007,03,27,10,52,9.30
2007,03,27,10,53,9.30
2007,03,27,10,54,9.30
2007,03,27,10,55,9.30
2007,03,27,10,56,9.30
2007,03,27,10,57,9.20
2007,03,27,10,58,9.20
2007,03,27,10,59,9.20
2007,03,27,11,00,9.20
2007,03,27,11,01,9.20
2007,03,27,11,02,9.20
2007,03,27,11,03,9.20
2007,03,27,11,04,9.20
2007,03,27,11,05,9.20
2007,03,27,11,06,9.20
2007,03,27,11,07,9.20
2007,03,27,11,08,9.20
2007,03,27,11,09,9.20
2007,03,27,11,10,9.20
2007,03,27,11,11,9.20
2007,03,27,11,12,9.20
2007,03,27,11,13,9.10
2007,03,27,11,14,9.00
2007,03,27,11,15,8.90
2007,03,27,11,16,8.80
2007,03,27,11,17,8.80
2007,03,27,11,18,8.80
2007,03,27,11,19,8.90
2007,03,27,11,20,9.00
2007,03,27,11,21,8.90
2007,03,27,11,22,8.90
2007,03,27,11,23,8.80
2007,03,27,11,24,8.80
2007,03,27,11,25,8.80
2007,03,27,11,26,8.80
2007,03,27,11,27,8.80
2007,03,27,11,28,8.70
2007,03,27,11,29,8.70
2007,03,27,11,30,8.70
2007,03,27,11,31,8.70
2007,03,27,11,32,8.70
2007,03,27,11,33,8.70
2007,03,27,11,34,8.70
2007,03,27,11,35,8.70
2007,03,27,11,36,8.70
2007,03,27,11,37,8.70
2007,03,27,11,38,8.70
2007,03,27,11,39,8.70
2007,03,27,11,40,8.70
2007,03,27,11,41,8.70
2007,03,27,11,42,8.70
2007,03,27,11,43,8.70
2007,03,27,11,44,8.70
2007,03,27,11,45,8.70
2007,03,27,11,46,8.70
2007,03,27,11,47,8.70
2007,03,27,11,48,8.70
2007,03,27,11,49,8.80
2007,03,27,11,50,8.90
2007,03,27,11,51,9.00
2007,03,27,11,52,9.00
2007,03,27,11,53,9.10
2007,03,27,11,54,9.20
2007,03,27,11,55,9.20
2007,03,27,11,56,9.20
2007,03,27,11,57,9.20
2007,03,27,11,58,9.30
2007,03,27,11,59,9.30
2007,03,27,12,00,9.40
2007,03,27,12,01,9.40
2007,03,27,12,02,9.50
2007,03,27,12,03,9.50
2007,03,27,12,04,9.50
2007,03,27,12,05,9.50
2007,03,27,12,06,9.50
2007,03,27,12,07,9.50
2007,03,27,12,08,9.50
2007,03,27,12,09,9.50
2007,03,27,12,10,9.50
2007,03,27,12,11,9.60
2007,03,27,12,12,9.50
2007,03,27,12,13,9.40
2007,03,27,12,14,9.30
2007,03,27,12,15,9.20
2007,03,27,12,16,9.10
2007,03,27,12,17,9.10
2007,03,27,12,18,9.10
2007,03,27,12,19,9.10
2007,03,27,12,20,9.10
2007,03,27,12,21,9.00
2007,03,27,12,22,9.00
2007,03,27,12,23,9.00
2007,03,27,12,24,9.00
2007,03,27,12,25,9.00
2007,03,27,12,26,9.00
2007,03,27,12,27,9.10
2007,03,27,12,28,9.20
2007,03,27,12,29,9.20
2007,03,27,12,30,9.30
2007,03,27,12,31,9.40
2007,03,27,12,32,9.40
2007,03,27,12,33,9.50
2007,03,27,12,34,9.50
2007,03,27,12,35,9.60
2007,03,27,12,36,9.60
2007,03,27,12,37,9.70
2007,03,27,12,38,9.70
2007,03,27,12,39,9.70
2007,03,27,12,40,9.70
2007,03,27,12,41,9.60
2007,03,27,12,42,9.70
2007,03,27,12,43,9.70
2007,03,27,12,44,9.70
2007,03,27,12,45,9.70
2007,03,27,12,46,9.70
2007,03,27,12,47,9.80
2007,03,27,12,48,9.80
2007,03,27,12,49,9.70
2007,03,27,12,50,9.70
2007,03,27,12,51,9.60
2007,03,27,12,52,9.70
2007,03,27,12,53,9.70
2007,03,27,12,54,9.70
2007,03,27,12,55,9.70
2007,03,27,12,56,9.60
2007,03,27,12,57,9.50
2007,03,27,12,58,9.40
2007,03,27,12,59,9.40
2007,03,27,13,00,9.50
2007,03,27,13,01,9.50
2007,03,27,13,02,9.50
2007,03,27,13,03,9.40
2007,03,27,13,04,9.50
2007,03,27,13,05,9.50
2007,03,27,13,06,9.50
2007,03,27,13,07,9.50
2007,03,27,13,08,9.50
2007,03,27,13,09,9.50
2007,03,27,13,10,9.50
2007,03,27,13,11,9.60
2007,03,27,13,12,9.70
2007,03,27,13,13,9.70
2007,03,27,13,14,9.80
2007,03,27,13,15,9.90
2007,03,27,13,16,10.10
2007,03,27,13,17,10.10
2007,03,27,13,18,10.20
2007,03,27,13,19,10.30
2007,03,27,13,20,10.40
2007,03,27,13,21,10.40
2007,03,27,13,22,10.30
2007,03,27,13,23,10.20
2007,03,27,13,24,10.20
2007,03,27,13,25,10.30
2007,03,27,13,26,10.20
2007,03,27,13,27,10.10
2007,03,27,13,28,10.10
2007,03,27,13,29,10.20
2007,03,27,13,30,10.20
2007,03,27,13,31,10.10
2007,03,27,13,32,10.20
2007,03,27,13,33,10.10
2007,03,27,13,34,10.10
2007,03,27,13,35,10.10
2007,03,27,13,36,10.20
2007,03,27,13,37,10.30
2007,03,27,13,38,10.40
2007,03,27,13,39,10.40
2007,03,27,13,40,10.40
2007,03,27,13,41,10.40
2007,03,27,13,42,10.40
2007,03,27,13,43,10.40
2007,03,27,13,44,10.30
2007,03,27,13,45,10.10
2007,03,27,13,46,10.10
2007,03,27,13,47,10.10
2007,03,27,13,48,10.10
2007,03,27,13,49,10.10
2007,03,27,13,50,10.00
2007,03,27,13,51,10.10
2007,03,27,13,52,10.10
2007,03,27,13,53,10.00
2007,03,27,13,54,9.90
2007,03,27,13,55,9.90
2007,03,27,13,56,9.70
2007,03,27,13,57,9.70
2007,03,27,13,58,9.70
2007,03,27,13,59,9.70
2007,03,27,14,00,9.70
2007,03,27,14,01,9.70
2007,03,27,14,02,9.80
2007,03,27,14,03,9.90
2007,03,27,14,04,9.90
2007,03,27,14,05,9.90
2007,03,27,14,06,9.80
2007,03,27,14,07,9.80
2007,03,27,14,08,9.70
2007,03,27,14,09,9.70
2007,03,27,14,10,9.70
2007,03,27,14,11,9.70
2007,03,27,14,12,9.80
2007,03,27,14,13,9.80
2007,03,27,14,14,9.80
2007,03,27,14,15,9.80
2007,03,27,14,16,9.70
2007,03,27,14,17,9.70
2007,03,27,14,18,9.60
2007,03,27,14,19,9.60
2007,03,27,14,20,9.60
2007,03,27,14,21,9.70
2007,03,27,14,22,9.80
2007,03,27,14,23,9.90
2007,03,27,14,24,9.90
2007,03,27,14,25,9.90
2007,03,27,14,26,9.90
2007,03,27,14,27,10.10
2007,03,27,14,28,10.10
2007,03,27,14,29,10.10
2007,03,27,14,30,10.20
2007,03,27,14,31,10.30
2007,03,27,14,32,10.30
2007,03,27,14,33,10.30
2007,03,27,14,34,10.30
2007,03,27,14,35,10.40
2007,03,27,14,36,10.40
2007,03,27,14,37,10.40
2007,03,27,14,38,10.60
2007,03,27,14,39,10.70
2007,03,27,14,40,10.90
2007,03,27,14,41,10.90
2007,03,27,14,42,10.90
2007,03,27,14,43,10.80
2007,03,27,14,44,10.80
2007,03,27,14,45,10.80
2007,03,27,14,46,10.80
2007,03,27,14,47,10.80
2007,03,27,14,48,10.80
2007,03,27,14,49,10.80
2007,03,27,14,50,10.80
2007,03,27,14,51,10.80
2007,03,27,14,52,10.80
2007,03,27,14,53,10.80
2007,03,27,14,54,10.80
2007,03,27,15,10,10.80
2007,03,27,15,11,10.80
2007,03,27,15,12,10.80
2007,03,27,15,13,10.70
2007,03,27,15,14,10.70
2007,03,27,15,15,10.70
2007,03,27,15,16,10.70
2007,03,27,15,17,10.70
2007,03,27,15,18,10.80
2007,03,27,15,19,10.80
2007,03,27,15,20,10.80
2007,03,27,15,21,10.90
2007,03,27,15,22,10.90
2007,03,27,15,23,10.90
2007,03,27,15,24,10.90
2007,03,27,15,25,10.90
2007,03,27,15,26,10.90
2007,03,27,15,27,11.10
2007,03,27,15,28,11.10
2007,03,27,15,29,11.10
2007,03,27,15,30,11.10
2007,03,27,15,31,11.00
2007,03,27,15,32,11.00
2007,03,27,15,33,11.10
2007,03,27,15,34,11.10
2007,03,27,15,35,11.10
2007,03,27,15,36,11.10
2007,03,27,15,37,11.10
2007,03,27,15,38,11.10
2007,03,27,15,39,11.10
2007,03,27,15,40,11.10
2007,03,27,15,41,11.10
2007,03,27,15,42,11.10
2007,03,27,15,43,11.10
2007,03,27,15,44,11.10
2007,03,27,19,24,7.20
2007,03,27,19,25,7.20
2007,03,27,19,26,7.20
2007,03,27,19,27,7.20
2007,03,27,19,28,7.20
2007,03,27,19,29,7.10
2007,03,27,19,30,7.10
2007,03,27,19,31,7.10
2007,03,27,19,32,7.10
2007,03,27,19,33,7.10
2007,03,27,19,34,7.10
2007,03,27,19,35,7.10
2007,03,27,19,36,7.10
2007,03,27,19,37,7.10
2007,03,27,19,38,7.00
2007,03,27,19,39,7.00
2007,03,27,19,40,7.00
2007,03,27,19,41,7.00
2007,03,27,19,42,7.00
2007,03,27,19,43,7.00
2007,03,27,19,44,7.00
2007,03,27,19,45,6.90
2007,03,27,19,46,6.90
2007,03,27,19,47,6.90
2007,03,27,19,48,6.90
2007,03,27,19,49,6.90
2007,03,27,19,50,6.90
2007,03,27,19,51,6.90
2007,03,27,19,52,6.90
2007,03,27,19,53,6.90
2007,03,27,19,54,6.90
2007,03,27,19,55,6.80
2007,03,27,19,56,6.80
2007,03,27,19,57,6.80
2007,03,27,19,58,6.80
2007,03,27,19,59,6.80
2007,03,27,20,00,6.80
2007,03,27,20,01,6.80
2007,03,27,20,02,6.80
2007,03,27,20,03,6.80
2007,03,27,20,04,6.80
2007,03,27,20,05,6.80
2007,03,27,20,06,6.80
2007,03,27,20,07,6.80
2007,03,27,20,08,6.80
2007,03,27,20,09,6.80
2007,03,27,20,10,6.80
2007,03,27,20,11,6.80
2007,03,27,20,12,6.80
2007,03,27,20,13,6.80
2007,03,27,20,14,6.80
2007,03,27,20,15,6.80
2007,03,27,20,16,6.80
2007,03,27,20,17,6.80
2007,03,27,20,18,6.80
2007,03,27,20,19,6.80
2007,03,27,20,20,6.80
2007,03,27,20,21,6.80
2007,03,27,20,22,6.80
2007,03,27,20,23,6.80
2007,03,27,20,24,6.80
2007,03,27,20,25,6.70
2007,03,27,20,26,6.70
2007,03,27,20,27,6.70
2007,03,27,20,28,6.70
2007,03,27,20,29,6.70
2007,03,27,20,30,6.70
2007,03,27,20,31,6.70
2007,03,27,20,32,6.70
2007,03,27,20,33,6.70
2007,03,27,20,34,6.80
2007,03,27,20,35,6.80
2007,03,27,20,36,6.80
2007,03,27,20,37,6.80
2007,03,27,20,38,6.80
2007,03,27,20,39,6.80
2007,03,27,20,40,6.80
2007,03,27,20,41,6.70
2007,03,27,20,42,6.70
2007,03,27,20,43,6.70
2007,03,27,20,44,6.70
2007,03,27,20,45,6.70
2007,03,27,20,46,6.80
2007,03,27,20,47,6.80
2007,03,27,20,48,6.80
2007,03,27,20,49,6.80
2007,03,27,20,50,6.80
2007,03,27,20,51,6.80
2007,03,27,20,52,6.70
2007,03,27,20,53,6.70
2007,03,27,20,54,6.70
2007,03,27,20,55,6.70
2007,03,27,20,56,6.70
2007,03,27,20,57,6.70
2007,03,27,20,58,6.70
2007,03,27,20,59,6.70
2007,03,27,21,00,6.70
2007,03,27,21,01,6.70
2007,03,27,21,02,6.60
2007,03,27,21,03,6.60
2007,03,27,21,04,6.60
2007,03,27,21,05,6.60
2007,03,27,21,06,6.60
2007,03,27,21,07,6.60
2007,03,27,21,08,6.60
2007,03,27,21,09,6.60
2007,03,27,21,10,6.60
2007,03,27,21,11,6.60
2007,03,27,21,12,6.60
2007,03,27,21,13,6.60
2007,03,27,21,14,6.60
2007,03,27,21,15,6.60
2007,03,27,21,16,6.60
2007,03,27,21,17,6.70
2007,03,27,21,18,6.70
2007,03,27,21,19,6.70
2007,03,27,21,20,6.70
2007,03,27,21,21,6.70
2007,03,27,21,22,6.70
2007,03,27,21,23,6.70
2007,03,27,21,24,6.70
2007,03,27,21,25,6.70
2007,03,27,21,26,6.70
2007,03,27,21,27,6.70
2007,03,27,21,28,6.70
2007,03,27,21,29,6.70
2007,03,27,21,30,6.70
2007,03,27,21,31,6.70
2007,03,27,21,32,6.70
2007,03,27,21,33,6.70
2007,03,27,21,34,6.70
2007,03,27,21,35,6.70
2007,03,27,21,36,6.60
2007,03,27,21,37,6.60
2007,03,27,21,38,6.60
2007,03,27,21,39,6.60
2007,03,27,21,40,6.70
2007,03,27,21,41,6.70
2007,03,27,21,42,6.70
2007,03,27,21,43,6.70
2007,03,27,21,44,6.70
2007,03,27,21,45,6.70
2007,03,27,21,46,6.70
2007,03,27,21,47,6.70
2007,03,27,21,48,6.70
2007,03,27,21,49,6.60
2007,03,27,21,50,6.60
2007,03,27,21,51,6.60
2007,03,27,21,52,6.60
2007,03,27,21,53,6.60
2007,03,27,21,54,6.60
2007,03,27,21,55,6.60
2007,03,27,21,56,6.60